Regional Weather Roundup
Issued by NWS Sioux Falls, SD

Home | Current Version | Previous Version | Text Only | Print | Product List | Glossary On
Versions: 1 2 3 4 5 6 7 8 9 10 11 12 13 14 15 16 17 18 19 20 21 22 23 24 25 26 27 28 29 30 31 32 33 34 35 36 37 38 39 40 41 42 43 44 45 46 47 48 49 50
000
ASUS43 KFSD 290710
RWRFSD

WEATHER ROUNDUP FOR SE SOUTH DAKOTA/SW MINNESOTA/NW IOWA
NATIONAL WEATHER SERVICE SIOUX FALLS SD
100 AM CST SAT NOV 29 2014

NOTE: "FAIR" INDICATES FEW OR NO CLOUDS BELOW 12,000 FEET WITH NO
SIGNIFICANT WEATHER AND OR OBSTRUCTIONS TO VISIBILITY.


SDZ038>040-050-052>070-290800-
SOUTHEAST SOUTH DAKOTA

CITY           SKY/WX    TMP DP  RH WIND       PRES   REMARKS
CHAMBERLAIN    CLEAR     24  22  92 SE3       29.46F
HURON          CLEAR     25  23  92 S10       29.47F WCI  15
MADISON        FAIR      21  21 100 S6        29.51S WCI  14
MITCHELL       CLEAR     25  23  92 SE7       29.49F FOG     WCI  17
SIOUX FALLS    CLEAR     22  20  92 E3        29.53F FOG
WINNER         FAIR      47  24  40 SW15      29.46F
YANKTON        PTCLDY    27  25  93 E7        29.52F WCI  19
$$

MNZ071-072-080-081-089-090-097-098-290800-
SOUTHWEST MINNESOTA

CITY           SKY/WX    TMP DP  RH WIND       PRES   REMARKS
FAIRMONT       MOCLDY    19  18  93 SE8       29.57F WCI   9
JACKSON        PTCLDY    23  21  93 SE8       29.56F WCI  14
LUVERNE        PTCLDY    21  19  93 NE3       29.54F FOG
MARSHALL       PTCLDY    16  10  79 SE9       29.53F WCI   4
MONTEVIDEO     PTCLDY    18  18 100 S6        29.57F WCI   9
PIPESTONE      CLEAR     25  23  93 SE9       29.51F WCI  15
REDWOOD FALLS  FAIR      20  17  88 SE12      29.56F WCI   8
TRACY          PTCLDY    22  21  95 S7        29.53F WCI  14
WINDOM         PTCLDY    21  19  93 SE3       29.55F FOG
WORTHINGTON    MOCLDY    21  19  93 SE6       29.55F WCI  14
$$

IAZ001>003-012>014-020>022-031-032-NEZ013-014-SDZ071-290800-
NORTHWEST IOWA

CITY           SKY/WX    TMP DP  RH WIND       PRES   REMARKS
CHEROKEE       PTCLDY    25  25 100 CALM      29.56F
DENISON        MOCLDY    39  32  75 S7        29.55F
ESTHERVILLE    PTCLDY    15  14  95 SE7       29.57F FOG     WCI   5
LE MARS        PTCLDY    25  25 100 CALM      29.54F
ORANGE CITY    PTCLDY    28  25  86 CALM      29.53F
SHELDON        PTCLDY    23  21  93 E6        29.53F WCI  16
SIOUX CITY     PTCLDY    30  26  85 E7        29.54F WCI  23
SPENCER        PTCLDY    19  16  88 E5        29.57F FOG     WCI  12
STORM LAKE     PTCLDY    27  25  93 SE9       29.56F FOG     WCI  17
$$

ABBREVIATIONS USED IN REMARKS
   TC - TEMPERATURE IN CELSIUS
  WCI - WIND CHILL INDEX
   HX - HEAT INDEX
  VSB - VISIBILITY




USA.gov is the U.S. government's official web portal to all federal, state and local government web resources and services.